Home   Weather   Vennesla   Past weeks

Flag for Norway Past Weather in Vennesla, Norway — Yesterday and Last 2 Weeks

Now
43 °F

Fog.


Feels Like: 43 °F
Forecast: 34 / 47 °F
Wind: No wind

Location: Kristiansand / Kjevik

Current Time: Dec 10, 2016 at 2:08:17 am

Latest Report: Dec 10, 2016 at 1:20 am


Visibility: 0 mi

Pressure: 29.80 "Hg

Humidity: 100%

Dew Point: 43 °F

Location of VenneslaLocation

Past Weather in Vennesla — Graph

°F

Vennesla Temperature Yesterday

Maximum temperature yesterday: 48 °F (at 9:20 am)
Minimum temperature yesterday: 41 °F (at 12:20 am)
Average temperature yesterday: 45 °F

High & Low Weather Summary for the Past Weeks

 TemperatureHumidityPressure
High54 °F (Dec 8, 2:20 am)100% (Nov 25, 2:50 am)30.51 "Hg (Nov 25, 2:50 am)
Low19 °F (Dec 3, 2:50 am)34% (Nov 27, 1:20 pm)29.65 "Hg (Dec 1, 1:50 pm)
Average39 °F78%30.08 "Hg
* Reported Nov 25 12:20 am — Dec 10 12:50 am, Vennesla, Weather by CustomWeather, © 2016

Note: Actual official high and low records may vary slightly from our data, if they occured in-between our weather recording intervals... More about our weather records

Advertising

Vennesla Weather History for the Previous 24 Hours

Scroll right to see more
 ConditionsComfort  
Time TempWeatherWind HumidityBarometerVisibility
12:50 am
Sat, Dec 10
43 °FFog.No wind100%29.80 "Hg0 mi
12:20 am43 °FFog.2 mph100%29.83 "Hg0 mi
11:50 pm
Fri, Dec 9
43 °FFog.3 mph100%29.83 "Hg0 mi
11:20 pm43 °FFog.3 mph100%29.83 "Hg0 mi
10:50 pm45 °FFog.1 mph100%29.83 "Hg0 mi
10:20 pm43 °FFog.5 mph100%29.83 "Hg0 mi
9:50 pm45 °FFog.No wind100%29.83 "Hg1 mi
9:20 pm45 °FFog.3 mph100%29.86 "Hg1 mi
8:50 pm45 °FFog.3 mph100%29.86 "Hg1 mi
8:20 pm45 °FDrizzle. Fog.3 mph100%29.86 "Hg2 mi
7:50 pm45 °FPartly cloudy.5 mph100%29.89 "Hg6 mi
7:20 pm45 °FLight rain. Passing clouds.7 mph93%29.92 "Hg3 mi
6:50 pm45 °FPassing clouds.7 mph93%29.92 "Hg6 mi
6:20 pm45 °FPassing clouds.7 mph93%29.95 "Hg4 mi
5:50 pm45 °FPassing clouds.8 mph93%29.92 "HgN/A
5:20 pm45 °FPassing clouds.8 mph93%29.95 "HgN/A
4:50 pm45 °FPassing clouds.8 mph93%29.95 "HgN/A
3:50 pm46 °FPassing clouds.10 mph87%29.95 "HgN/A
3:20 pm46 °FPartly sunny.12 mph87%29.98 "HgN/A
2:50 pm46 °FPartly sunny.13 mph87%29.95 "HgN/A
2:20 pm46 °FPartly sunny.9 mph87%29.98 "HgN/A
1:50 pm46 °FSunny.10 mph87%29.98 "Hg10 mi
12:50 pm46 °FPassing clouds.5 mph82%29.95 "HgN/A
12:20 pm46 °FPassing clouds.6 mph82%29.95 "HgN/A
11:50 am45 °FPassing clouds.9 mph87%29.95 "HgN/A
11:20 am46 °FPassing clouds.9 mph82%29.95 "HgN/A
10:50 am46 °FScattered clouds.7 mph82%29.95 "HgN/A
10:20 am48 °FScattered clouds.7 mph76%29.92 "HgN/A
9:50 am48 °FPassing clouds.12 mph82%29.92 "HgN/A
9:20 am48 °FPassing clouds.9 mph76%29.89 "HgN/A
8:50 am46 °FPassing clouds.9 mph82%29.89 "HgN/A
8:20 am45 °FPassing clouds.7 mph81%29.89 "HgN/A
7:50 am46 °FPassing clouds.7 mph76%29.89 "HgN/A
7:20 am46 °FClear.10 mph82%29.89 "Hg10 mi
6:50 am46 °FClear.10 mph82%29.89 "Hg10 mi
6:20 am45 °FClear.12 mph87%29.89 "Hg10 mi
5:50 am46 °FClear.10 mph82%29.89 "Hg10 mi
5:20 am46 °FPartly cloudy.13 mph82%29.89 "HgN/A
4:50 am45 °FPassing clouds.8 mph81%29.89 "HgN/A
4:20 am43 °FPassing clouds.9 mph93%29.92 "HgN/A
3:50 am43 °FPassing clouds.8 mph93%29.92 "HgN/A
3:20 am43 °FPartly cloudy.5 mph87%29.92 "HgN/A
2:50 am41 °FPartly cloudy.6 mph93%29.92 "HgN/A
2:20 am43 °FPassing clouds.9 mph87%29.92 "HgN/A
Weather by CustomWeather, © 2016

See weather overviewHow to use our weather pages